(224191) = 2005 RB8

Discovered at Socorro on 2005-09-08 by LINEAR.

Orbit

Orbit type: Main Belt

Note: WebGL enabled browser required.

epoch2023-09-13.0
epoch JD2460200.5
perihelion date2020-02-18.00465
perihelion JD2458897.50465
argument of perihelion (°)327.84631
ascending node (°)356.70041
inclination (°)1.17675
eccentricity0.1964033
perihelion distance (AU)1.9127253
Tisserand w.r.t. Jupiter3.5
ΔV w.r.t. Earth (km/sec)8.6
semimajor axis (AU)2.3802056
mean anomaly (°)349.72365
mean daily motion (°/day)0.26839980
aphelion distance (AU)2.848
period (years)3.67
P-vector [x]0.81459530
P-vector [y]-0.52772490
P-vector [z]-0.24070921
Q-vector [x]0.58002853
Q-vector [y]0.74029100
Q-vector [z]0.33990606
absolute magnitude16.97
phase slope0.15
uncertainty0
referenceMPO 778568
observations used508
oppositions15
arc length (days)10591
first opposition used1994
last opposition used2023
residual rms (arc-secs)0.73
perturbers coarse indicatorM-v
perturbers precise indicator003Ek
first observation date used1994-11-01.0
last observation date used2023-10-31.0
computer nameMPCLINUX
Minimum Orbit Intersection Distances (in AU)
for orbit epoch: 2460200.5, reference: E2023-V03
Mercury1.49685
Venus1.18575
Earth0.90019
Mars0.52819
Jupiter2.46866
Saturn6.3252
Uranus15.6203
Neptune27.4418

Observations

524 total observations over interval: 1994 11 01.08393 – 2023 10 31.226716
These data are available for download (format description).

Date (UT) J2000 RA J2000 Dec Magn Location Ref
1994 11 01.08393 00 35 13.98 +04 49 00.5   691 – Steward Observatory, Kitt Peak-Spacewatch MPS 149599
1994 11 01.10538 00 35 13.38 +04 48 57.0 19.5 V 691 – Steward Observatory, Kitt Peak-Spacewatch MPS 149599
1994 11 01.12677 00 35 12.72 +04 48 53.8   691 – Steward Observatory, Kitt Peak-Spacewatch MPS 149599
2001 05 25.40565 19 53 15.40 -22 50 38.1 19.8   644 – Palomar Mountain/NEAT MPS 149599
2001 05 25.41625 19 53 15.65 -22 50 38.0 20.2   644 – Palomar Mountain/NEAT MPS 149599
2001 05 25.42696 19 53 15.84 -22 50 38.3 20.8   644 – Palomar Mountain/NEAT MPS 149599
2001 07 10.27293 19 37 28.19 -23 49 35.1 18.1   644 – Palomar Mountain/NEAT MPS 149599
2001 07 10.28335 19 37 27.60 -23 49 36.2 18.5   644 – Palomar Mountain/NEAT MPS 149599
2001 07 10.29378 19 37 26.97 -23 49 37.6 18.5   644 – Palomar Mountain/NEAT MPS 149599
2005 08 30.38411 01 01 59.02 +06 38 00.5 19.1 R 699 – Lowell Observatory-LONEOS MPS 142735
2005 08 30.40685 01 01 58.53 +06 38 00.3   699 – Lowell Observatory-LONEOS MPS 142735
2005 08 30.42960 01 01 58.09 +06 37 59.7   699 – Lowell Observatory-LONEOS MPS 142735
2005 08 30.45237 01 01 57.69 +06 37 59.4   699 – Lowell Observatory-LONEOS MPS 142735
2005 09 08.30897 00 58 26.70 +06 24 48.5 18.8   704 – Lincoln Laboratory ETS, New Mexico MPS 141797
2005 09 08.32035 00 58 26.28 +06 24 47.1 19.2   704 – Lincoln Laboratory ETS, New Mexico MPS 141797
2005 09 08.33168 00 58 25.88 +06 24 44.9 19.2   704 – Lincoln Laboratory ETS, New Mexico MPS 141797
2005 09 08.34297 00 58 25.41 +06 24 43.4 19.3   704 – Lincoln Laboratory ETS, New Mexico MPS 141797
2005 09 08.35437 00 58 25.07 +06 24 41.6 19.2   704 – Lincoln Laboratory ETS, New Mexico MPS 141797
2005 09 09.30337 00 57 53.72 +06 22 24.3 19.6   704 – Lincoln Laboratory ETS, New Mexico MPS 141797
2005 09 09.31459 00 57 53.26 +06 22 21.1 19.6   704 – Lincoln Laboratory ETS, New Mexico MPS 141797
2005 09 09.32578 00 57 52.88 +06 22 20.5 19.5   704 – Lincoln Laboratory ETS, New Mexico MPS 141797
2005 09 09.33695 00 57 52.49 +06 22 19.0 19.5   704 – Lincoln Laboratory ETS, New Mexico MPS 141797
2005 09 15.26751 00 54 02.23 +06 04 24.7 19.0 V 703 – Catalina Sky Survey MPS 141797
2005 09 15.27551 00 54 01.87 +06 04 23.3 18.5 V 703 – Catalina Sky Survey MPS 141797
2005 09 15.28352 00 54 01.44 +06 04 18.6 17.6 V 703 – Catalina Sky Survey MPS 141797
2005 09 15.29155 00 54 01.26 +06 04 18.3 18.0 V 703 – Catalina Sky Survey MPS 141797
2005 09 23.30470 00 47 35.70 +05 32 12.4 18.6 V 703 – Catalina Sky Survey MPS 142252
2005 09 23.31594 00 47 35.16 +05 32 09.4 18.7 V 703 – Catalina Sky Survey MPS 142252
2005 09 23.32719 00 47 34.54 +05 32 06.5 18.7 V 703 – Catalina Sky Survey MPS 142252
2005 09 23.33846 00 47 33.90 +05 32 03.5 18.6 V 703 – Catalina Sky Survey MPS 142252
2005 09 26.20154 00 45 02.43 +05 18 56.3 19.2 V 691 – Steward Observatory, Kitt Peak-Spacewatch MPS 142735
2005 09 26.21897 00 45 01.45 +05 18 51.2 19.2 V 691 – Steward Observatory, Kitt Peak-Spacewatch MPS 142735
2005 09 26.23657 00 45 00.47 +05 18 46.3 19.4 V 691 – Steward Observatory, Kitt Peak-Spacewatch MPS 142735
2005 09 27.17818 00 44 09.60 +05 14 19.0 19.1 V 691 – Steward Observatory, Kitt Peak-Spacewatch MPS 142735
2005 09 27.22142 00 44 07.16 +05 14 06.9 19.2 V 691 – Steward Observatory, Kitt Peak-Spacewatch MPS 142735
2005 09 27.23880 00 44 06.18 +05 14 01.9 19.2 V 691 – Steward Observatory, Kitt Peak-Spacewatch MPS 142735
2005 09 29.29752 00 42 13.33 +05 04 06.9 18.4 R 699 – Lowell Observatory-LONEOS MPS 142735
2005 09 29.31341 00 42 12.43 +05 04 02.4 19.3 R 644 – Palomar Mountain/NEAT MPS 142735
2005 09 29.32036 00 42 11.91 +05 04 00.1   699 – Lowell Observatory-LONEOS MPS 142735
2005 09 29.33558 00 42 11.14 +05 03 55.9 18.4 R 644 – Palomar Mountain/NEAT MPS 142735
2005 09 29.34317 00 42 10.64 +05 03 54.0   699 – Lowell Observatory-LONEOS MPS 142735
2005 09 29.35659 00 42 09.95 +05 03 49.9 18.4 R 644 – Palomar Mountain/NEAT MPS 142735
2005 10 01.16075 00 40 30.88 +04 55 00.4 18.8 V 691 – Steward Observatory, Kitt Peak-Spacewatch MPS 144088
2005 10 01.18167 00 40 29.75 +04 54 53.4 18.7 V 691 – Steward Observatory, Kitt Peak-Spacewatch MPS 144088
2005 10 01.20243 00 40 28.48 +04 54 48.3 19.0 V 691 – Steward Observatory, Kitt Peak-Spacewatch MPS 144088
2005 10 05.17237 00 36 50.07 +04 35 14.1 19.0 V 691 – Steward Observatory, Kitt Peak-Spacewatch MPS 144088
2005 10 05.18972 00 36 49.09 +04 35 08.9 18.8 V 691 – Steward Observatory, Kitt Peak-Spacewatch MPS 144088
2005 10 05.20706 00 36 48.09 +04 35 03.9 18.7 V 691 – Steward Observatory, Kitt Peak-Spacewatch MPS 144088
2005 10 06.20172 00 35 54.05 +04 30 11.4 18.4 R 699 – Lowell Observatory-LONEOS MPS 144088
2005 10 06.22457 00 35 52.72 +04 30 03.9   699 – Lowell Observatory-LONEOS MPS 144088
2005 10 06.24737 00 35 51.39 +04 29 57.2   699 – Lowell Observatory-LONEOS MPS 144088
2005 10 06.27020 00 35 50.09 +04 29 51.2   699 – Lowell Observatory-LONEOS MPS 144088
2005 10 07.20920 00 34 59.70 +04 25 16.5 18.6 V G96 – Mt. Lemmon Survey MPS 144088
2005 10 07.21451 00 34 59.37 +04 25 16.2 19.2   704 – Lincoln Laboratory ETS, New Mexico MPS 144088
2005 10 07.21527 00 34 59.37 +04 25 14.8 18.6 V G96 – Mt. Lemmon Survey MPS 144088
2005 10 07.22128 00 34 59.01 +04 25 13.0 18.6 V G96 – Mt. Lemmon Survey MPS 144088
2005 10 07.22534 00 34 58.73 +04 25 12.5 19.3   704 – Lincoln Laboratory ETS, New Mexico MPS 144088
2005 10 07.22735 00 34 58.69 +04 25 11.3 18.7 V G96 – Mt. Lemmon Survey MPS 144088
2005 10 07.23612 00 34 58.19 +04 25 09.0 19.1   704 – Lincoln Laboratory ETS, New Mexico MPS 144088
2005 10 07.24694 00 34 57.61 +04 25 04.8 18.9   704 – Lincoln Laboratory ETS, New Mexico MPS 144088
2005 10 07.25109 00 34 57.29 +04 25 04.6 19.5   704 – Lincoln Laboratory ETS, New Mexico MPS 144088
2005 10 07.26192 00 34 56.70 +04 25 01.8 19.3   704 – Lincoln Laboratory ETS, New Mexico MPS 144088
2005 10 07.27274 00 34 56.10 +04 24 59.2 19.3   704 – Lincoln Laboratory ETS, New Mexico MPS 144088
2005 10 07.27759 00 34 55.81 +04 24 56.4 18.6 V 703 – Catalina Sky Survey MPS 144088
2005 10 07.28357 00 34 55.45 +04 24 55.5 19.1   704 – Lincoln Laboratory ETS, New Mexico MPS 144088
2005 10 07.28460 00 34 55.38 +04 24 53.6 18.1 V 703 – Catalina Sky Survey MPS 144088
2005 10 07.29161 00 34 55.02 +04 24 52.6 18.3 V 703 – Catalina Sky Survey MPS 144088
2005 10 07.29441 00 34 54.86 +04 24 52.7 19.3   704 – Lincoln Laboratory ETS, New Mexico MPS 144088
2005 10 07.29862 00 34 54.66 +04 24 50.6 18.4 V 703 – Catalina Sky Survey MPS 144088
2005 10 10.13786 00 32 25.64 +04 11 16.4 19.1 V 691 – Steward Observatory, Kitt Peak-Spacewatch MPS 144088
2005 10 10.15529 00 32 24.69 +04 11 11.9 19.2 V 691 – Steward Observatory, Kitt Peak-Spacewatch MPS 144088
2005 10 10.17279 00 32 23.77 +04 11 07.0 19.2 V 691 – Steward Observatory, Kitt Peak-Spacewatch MPS 144088
2005 10 10.28664 00 32 17.48 +04 10 35.0 18.8   704 – Lincoln Laboratory ETS, New Mexico MPS 144089
2005 10 10.30850 00 32 16.33 +04 10 28.0 19.4   704 – Lincoln Laboratory ETS, New Mexico MPS 144089
2005 10 10.31943 00 32 15.69 +04 10 26.5 19.5   704 – Lincoln Laboratory ETS, New Mexico MPS 144089
2005 10 21.23671 00 23 59.98 +03 25 07.1 18.8 R 644 – Palomar Mountain/NEAT MPS 146116
2005 10 21.25810 00 23 59.10 +03 25 02.6 18.7 R 644 – Palomar Mountain/NEAT MPS 146116
2005 10 21.28167 00 23 58.15 +03 24 57.9 18.9 R 644 – Palomar Mountain/NEAT MPS 146116
2005 10 25.08994 00 21 44.92 +03 12 48.4 19.3 V 691 – Steward Observatory, Kitt Peak-Spacewatch MPS 146116
2005 10 25.10883 00 21 44.28 +03 12 45.1 19.3 V 691 – Steward Observatory, Kitt Peak-Spacewatch MPS 146116
2005 10 25.12764 00 21 43.64 +03 12 42.0 19.3 V 691 – Steward Observatory, Kitt Peak-Spacewatch MPS 146116
2005 10 27.17636 00 20 41.77 +03 07 07.9 19.1 R 699 – Lowell Observatory-LONEOS MPS 146116
2005 10 27.20378 00 20 40.93 +03 07 03.6   699 – Lowell Observatory-LONEOS MPS 146116
2005 10 27.20996 00 20 40.70 +03 07 02.6 19.3 V G96 – Mt. Lemmon Survey MPS 146116
2005 10 27.21662 00 20 40.48 +03 07 01.6 19.3 V G96 – Mt. Lemmon Survey MPS 146116
2005 10 27.22337 00 20 40.30 +03 07 00.6 19.4 V G96 – Mt. Lemmon Survey MPS 146116
2005 10 27.23007 00 20 40.09 +03 06 59.6 19.4 V G96 – Mt. Lemmon Survey MPS 146116
2005 10 27.23122 00 20 40.06 +03 06 59.1   699 – Lowell Observatory-LONEOS MPS 146116
2005 10 27.25865 00 20 39.18 +03 06 56.3   699 – Lowell Observatory-LONEOS MPS 146116
2005 11 28.09363 00 21 24.40 +03 20 28.8 20.2 V G96 – Mt. Lemmon Survey MPS 152107
